This is the latest recevied weather packets stored in our database for station/object KD5BIG-13. If no packets are shown the sender has not sent any weather packets the latest 10 day(s).
| Time | Temp. | Humidity | Pressure | Rain* | Wind** | Luminosity | Snow |
|---|---|---|---|---|---|---|---|
| 1777746859 | 21.11° C | 40% | 1022.6 hPa | 0 mm | - | 926 W/m² | - |
| 1777746555 | 21.11° C | 38% | 1022.6 hPa | 0 mm | - | 926 W/m² | - |
| 1777745947 | 21.11° C | 48% | 1022.9 hPa | 0 mm | - | 921 W/m² | - |
| 1777745343 | 21.11° C | 42% | 1022.8 hPa | 0 mm | - | 918 W/m² | - |
| 1777745040 | 21.11° C | 43% | 1022.9 hPa | 0 mm | - | 910 W/m² | - |
| 1777744735 | 21.11° C | 44% | 1022.9 hPa | 0 mm | - | 900 W/m² | - |
| 1777743521 | 20.56° C | 43% | 1023 hPa | 0 mm | - | 886 W/m² | - |
| 1777739882 | 20° C | 46% | 1023.4 hPa | 0 mm | - | 875 W/m² | - |
| 1777739275 | 19.44° C | 51% | 1023.3 hPa | 0 mm | - | 869 W/m² | - |
| 1777738973 | 18.89° C | 53% | 1023.2 hPa | 0 mm | - | 880 W/m² | - |
| 1777738669 | 18.89° C | 51% | 1023.3 hPa | 0 mm | - | 879 W/m² | - |
| 1777738064 | 19.44° C | 52% | 1023.3 hPa | 0 mm | - | 895 W/m² | - |
| 1777737763 | 18.89° C | 54% | 1023.3 hPa | 0 mm | - | 887 W/m² | - |
| 1777736235 | 18.33° C | 61% | 1023.3 hPa | 0 mm | - | 827 W/m² | - |
| 1777735931 | 18.33° C | 62% | 1023.2 hPa | 0 mm | - | 810 W/m² | - |
| 1777735628 | 17.78° C | 68% | 1023 hPa | 0 mm | - | 793 W/m² | - |
| 1777735326 | 17.78° C | 66% | 1022.9 hPa | 0 mm | - | 777 W/m² | - |
| 1777735024 | 17.78° C | 67% | 1022.9 hPa | 0 mm | - | 758 W/m² | - |
| 1777734721 | 17.78° C | 72% | 1022.8 hPa | 0 mm | - | 739 W/m² | - |
| 1777734418 | 17.78° C | 77% | 1022.7 hPa | 0 mm | - | 717 W/m² | - |
| 1777734114 | 17.22° C | 74% | 1022.6 hPa | 0 mm | - | 698 W/m² | - |
| 1777733811 | 17.22° C | 74% | 1022.8 hPa | 0 mm | - | 676 W/m² | - |
| 1777733507 | 17.22° C | 75% | 1022.6 hPa | 0 mm | - | 652 W/m² | - |
| 1777733203 | 17.22° C | 77% | 1022.6 hPa | 0 mm | - | 628 W/m² | - |
| 1777732901 | 17.22° C | 79% | 1022.5 hPa | 0 mm | - | 604 W/m² | - |
* Rain latest hour (hover to see other rain measurements)
** Current wind speed in m/s (hover to see current wind gust speed)